Location: Corralito
(14.1667°N, 87.1833°W)
Time: 08:22:49
(UTC+00:00)

Nadezhda 4 Rocket - Pass Details

Date: 01 October 2020
Orbit: 949 x 993 km, 82.9° (Epoch: 20 October)

Event Time Altitude Azimuth Distance (km) Brightness Sun altitude
Rises 01:31:52 0° 336° (NNW) 3,623 7.3 -28.3°
Reaches altitude 10° 01:34:45 10° 324° (NW) 2,683 6.8 -29.0°
Maximum altitude 01:39:41 26° 270° (W) 1,793 6.0 -30.2°
Drops below altitude 10° 01:44:41 10° 215° (SW) 2,704 6.6 -31.4°
Sets 01:47:37 0° 203° (SSW) 3,658 7.2 -32.1°
